{"data":{"norad_id":65811,"epoch":"2026-09-20T13:57:38.760768Z","epoch_age_seconds":99054,"freshness":"FRESH","line1":"1 65811U 25218W   26263.58169862  .00010808  00000+0  33651-3 0  9990","line2":"2 65811  97.2841 120.9206 0001924  87.1030 273.0433 15.33453971 54348","mean_motion":15.33453971,"eccentricity":0.0001924,"inclination_deg":97.2841,"raan_deg":120.9206,"arg_perigee_deg":87.103,"mean_anomaly_deg":273.0433,"bstar":0.00033651,"rev_number":5434,"period_min":93.905655287517,"perigee_km":464.19976429372,"apogee_km":466.83320215406,"semimajor_km":6843.6534832239,"source":"CELESTRAK","updated_at":"2026-09-21T09:00:35.717800Z"}}